Temp
-9 -10 -11 -12 -14 -15 -17 -19 -20 -20 -20 -20 -20 -20 -20 -20 -20 -20 -20 -20 -20 -20 -20 -19 -18 -17 -16 -17 -17 -17 -17 -16 -15 -15 -14 -14 -14 -13 -13 -12 -12 -12 -12 -12 -11 -11 -11
-9 -10 -11 -12 -14 -15 -17 -19 -20 -20 -20 -20 -19 -20 -21 -20 -21 -20 -20 -20 -20 -20 -20 -19 -19 -17 -17 -17 -17 -17 -17 -16 -16 -16 -15 -14 -14 -14 -13 -13 -13 -13 -13 -12 -12 -12 -12
-10 -10 -11 -13 -14 -15 -16 -19 -20 -20 -20 -21 -20 -20 -21 -21 -21 -21 -21 -20 -20 -19 -19 -19 -19 -18 -18 -17 -17 -17 -17 -17 -17 -16 -15 -15 -14 -14 -14 -14 -13 -13 -13 -13 -12 -12 -12
-10 -11 -11 -12 -14 -15 -16 -18 -19 -20 -21 -21 -21 -21 -21 -21 -21 -21 -21 -21 -20 -20 -20 -20 -19 -18 -18 -18 -18 -17 -17 -17 -17 -16 -16 -16 -15 -15 -14 -14 -14 -13 -13 -13 -13 -12 -12
-11 -11 -11 -12 -14 -14 -15 -17 -19 -20 -21 -21 -21 -20 -21 -20 -20 -21 -21 -21 -21 -21 -21 -19 -19 -18 -18 -18 -18 -18 -18 -17 -17 -17 -17 -16 -15 -15 -15 -14 -14 -13 -13 -13 -13 -13 -12
-11 -11 -12 -12 -13 -14 -15 -16 -18 -20 -20 -20 -20 -20 -20 -20 -19 -21 -21 -21 -20 -20 -20 -19 -19 -18 -18 -18 -17 -17 -17 -17 -17 -17 -16 -16 -16 -15 -15 -15 -14 -14 -14 -13 -13 -13 -13
-10 -11 -12 -12 -12 -14 -14 -15 -17 -19 -20 -19 -19 -19 -19 -19 -19 -19 -21 -20 -20 -20 -20 -19 -19 -19 -19 -18 -17 -17 -16 -16 -17 -17 -16 -16 -16 -15 -15 -15 -15 -14 -14 -14 -14 -13 -13
-11 -11 -12 -12 -13 -13 -14 -15 -16 -17 -17 -18 -18 -18 -19 -19 -19 -20 -21 -20 -19 -19 -19 -19 -19 -19 -18 -18 -18 -17 -16 -17 -16 -16 -16 -16 -16 -16 -16 -15 -15 -15 -14 -14 -14 -14 -13
-11 -11 -11 -12 -12 -13 -14 -14 -15 -16 -16 -17 -18 -18 -18 -18 -18 -19 -19 -18 -18 -19 -18 -19 -19 -18 -18 -18 -18 -17 -18 -17 -17 -17 -17 -16 -16 -15 -15 -15 -15 -15 -15 -14 -14 -14 -13
-12 -11 -11 -12 -12 -13 -13 -14 -15 -15 -15 -16 -17 -18 -18 -18 -18 -18 -19 -18 -18 -18 -18 -18 -18 -18 -18 -18 -18 -18 -18 -18 -17 -17 -17 -17 -16 -16 -15 -15 -14 -14 -14 -14 -13 -13 -13
-12 -12 -11 -12 -13 -12 -13 -14 -14 -14 -15 -15 -16 -17 -17 -17 -17 -18 -18 -19 -18 -18 -18 -18 -18 -18 -17 -18 -18 -18 -18 -17 -17 -17 -17 -16 -16 -16 -15 -15 -15 -14 -14 -14 -13 -13 -13
-12 -12 -12 -11 -12 -12 -12 -13 -14 -14 -14 -15 -15 -16 -16 -17 -17 -17 -18 -18 -18 -17 -18 -18 -18 -18 -18 -18 -18 -18 -17 -17 -17 -17 -17 -17 -16 -16 -16 -15 -15 -15 -15 -15 -14 -14 -14
-12 -12 -12 -12 -11 -12 -13 -13 -13 -14 -14 -14 -14 -15 -15 -16 -16 -16 -17 -17 -17 -17 -18 -18 -18 -18 -18 -18 -18 -18 -18 -17 -17 -17 -17 -16 -16 -16 -15 -15 -15 -15 -15 -15 -15 -14 -14
-12 -12 -12 -12 -12 -12 -13 -13 -13 -13 -14 -14 -14 -14 -14 -15 -15 -16 -16 -16 -16 -17 -18 -18 -18 -18 -18 -18 -18 -18 -18 -18 -17 -17 -17 -16 -16 -16 -16 -16 -16 -15 -15 -15 -15 -15 -15
-12 -12 -12 -12 -12 -12 -12 -13 -13 -13 -13 -13 -14 -14 -14 -14 -15 -16 -16 -15 -16 -16 -17 -17 -17 -17 -17 -17 -17 -17 -17 -17 -17 -16 -16 -16 -16 -16 -16 -16 -16 -16 -15 -15 -15 -15 -15
-12 -12 -12 -12 -13 -12 -12 -12 -13 -13 -13 -13 -13 -14 -14 -14 -14 -14 -15 -14 -15 -15 -16 -16 -16 -17 -16 -16 -16 -17 -17 -16 -17 -16 -16 -16 -16 -16 -16 -16 -16 -15 -15 -15 -15 -15 -14
-12 -12 -11 -12 -12 -13 -12 -12 -12 -12 -13 -13 -13 -13 -13 -14 -14 -14 -14 -14 -14 -15 -15 -16 -15 -16 -16 -16 -16 -16 -16 -16 -16 -16 -16 -16 -16 -16 -16 -15 -15 -15 -15 -15 -14 -14 -14
-12 -12 -12 -11 -12 -12 -13 -12 -12 -12 -12 -12 -12 -13 -12 -13 -13 -14 -14 -14 -14 -14 -14 -15 -15 -15 -15 -15 -15 -15 -15 -15 -16 -16 -16 -16 -15 -15 -15 -15 -15 -15 -15 -15 -15 -14 -15
-12 -12 -12 -11 -12 -12 -13 -12 -12 -12 -12 -12 -12 -12 -12 -12 -13 -13 -13 -13 -14 -14 -14 -14 -14 -14 -14 -15 -15 -15 -15 -15 -15 -15 -15 -15 -15 -15 -15 -15 -15 -15 -14 -14 -14 -14 -14
-12 -12 -12 -11 -12 -12 -12 -13 -12 -12 -11 -12 -12 -12 -12 -12 -12 -12 -12 -12 -13 -13 -13 -14 -14 -14 -14 -14 -15 -15 -15 -14 -15 -15 -15 -15 -15 -15 -14 -14 -14 -14 -14 -14 -14 -14 -14
-13 -13 -12 -12 -12 -12 -12 -12 -12 -12 -12 -11 -11 -11 -12 -12 -12 -12 -12 -12 -12 -12 -12 -12 -13 -13 -13 -14 -14 -14 -14 -14 -14 -14 -14 -14 -14 -14 -14 -14 -14 -14 -14 -14 -14 -15 -14
-13 -12 -12 -12 -12 -12 -12 -12 -12 -12 -12 -12 -11 -11 -11 -11 -12 -12 -12 -12 -12 -12 -13 -12 -12 -12 -12 -12 -13 -13 -13 -13 -13 -13 -13 -13 -13 -14 -14 -13 -13 -14 -13 -13 -13 -13 -13
-13 -13 -13 -12 -12 -12 -12 -12 -12 -12 -12 -11 -12 -11 -11 -11 -11 -11 -12 -12 -12 -12 -12 -12 -12 -12 -12 -12 -13 -13 -13 -13 -13 -13 -13 -13 -13 -13 -14 -13 -13 -13 -13 -13 -13 -13 -13
-13 -13 -14 -13 -12 -12 -12 -12 -12 -12 -12 -12 -11 -11 -11 -11 -11 -11 -11 -11 -12 -12 -12 -12 -11 -12 -12 -12 -12 -12 -12 -12 -12 -12 -12 -12 -12 -12 -12 -13 -13 -13 -13 -13 -13 -13 -12
-14 -14 -14 -13 -13 -12 -12 -12 -12 -12 -12 -12 -12 -12 -11 -11 -11 -11 -12 -11 -11 -12 -12 -12 -12 -12 -12 -12 -12 -12 -12 -12 -12 -12 -12 -12 -12 -12 -12 -12 -12 -12 -12 -12 -12 -13 -12
-14 -14 -14 -13 -13 -12 -13 -12 -12 -12 -12 -12 -12 -11 -12 -11 -11 -11 -11 -12 -11 -11 -11 -11 -12 -12 -12 -12 -12 -12 -12 -12 -12 -12 -12 -12 -12 -12 -12 -12 -12 -12 -12 -12 -12 -13 -13
-14 -14 -14 -14 -13 -13 -12 -12 -12 -12 -12 -12 -12 -12 -12 -11 -11 -11 -11 -11 -12 -12 -12 -11 -11 -12 -12 -12 -12 -12 -12 -12 -12 -12 -12 -12 -12 -12 -13 -12 -12 -13 -12 -13 -12 -12 -13
-15 -14 -14 -14 -14 -14 -14 -13 -13 -12 -12 -12 -12 -12 -12 -12 -11 -12 -11 -11 -11 -12 -12 -12 -12 -11 -11 -12 -12 -12 -13 -13 -13 -13 -13 -13 -13 -13 -13 -13 -13 -12 -12 -12 -12 -13 -13
-15 -15 -14 -14 -13 -14 -13 -13 -13 -13 -12 -12 -12 -12 -11 -12 -12 -12 -12 -12 -12 -12 -12 -12 -12 -12 -12 -12 -12 -12 -12 -12 -13 -13 -14 -13 -13 -13 -13 -13 -13 -12 -12 -13 -13 -13 -13
Height
5763 5752 5738 5725 5709 5692 5677 5661 5650 5641 5633 5625 5616 5607 5599 5594 5593 5589 5585 5583 5583 5584 5589 5599 5608 5614 5625 5632 5642 5651 5658 5668 5683 5696 5708 5719 5728 5736 5744 5752 5757 5763 5768 5773 5778 5782 5785
5765 5754 5741 5728 5714 5697 5682 5667 5655 5645 5636 5629 5620 5608 5599 5593 5592 5592 5590 5590 5590 5591 5593 5600 5611 5618 5627 5633 5641 5650 5660 5669 5680 5693 5705 5716 5725 5733 5740 5747 5754 5759 5764 5770 5774 5777 5781
5768 5757 5745 5732 5718 5704 5687 5673 5660 5650 5641 5632 5622 5612 5603 5597 5594 5593 5593 5593 5595 5599 5601 5607 5618 5624 5631 5637 5644 5652 5661 5668 5678 5689 5701 5712 5722 5730 5736 5742 5750 5755 5760 5765 5769 5772 5776
5770 5760 5749 5736 5723 5710 5694 5679 5667 5656 5647 5639 5628 5620 5611 5603 5598 5597 5598 5596 5597 5603 5607 5615 5625 5631 5637 5643 5651 5658 5663 5669 5677 5688 5699 5708 5716 5725 5733 5740 5746 5752 5757 5761 5765 5768 5772
5772 5763 5753 5741 5729 5716 5702 5686 5674 5662 5652 5644 5637 5629 5621 5613 5606 5602 5603 5601 5601 5607 5612 5623 5632 5636 5643 5649 5654 5660 5665 5672 5679 5687 5695 5706 5714 5722 5730 5736 5742 5747 5752 5756 5760 5763 5766
5777 5766 5757 5746 5735 5724 5710 5695 5682 5670 5659 5652 5646 5638 5632 5625 5618 5612 5612 5615 5611 5616 5621 5630 5640 5648 5651 5655 5661 5665 5670 5675 5682 5689 5696 5704 5713 5721 5727 5733 5739 5744 5748 5752 5755 5759 5760
5782 5771 5762 5751 5741 5731 5719 5706 5691 5679 5667 5661 5657 5648 5642 5637 5631 5625 5621 5625 5633 5629 5633 5641 5646 5651 5655 5662 5667 5671 5676 5680 5685 5692 5699 5706 5712 5718 5723 5729 5734 5739 5743 5747 5749 5752 5755
5787 5777 5767 5758 5747 5737 5728 5716 5702 5690 5678 5672 5668 5661 5654 5648 5644 5639 5635 5636 5639 5641 5643 5647 5654 5657 5662 5667 5672 5676 5680 5685 5690 5695 5698 5704 5708 5714 5720 5725 5730 5735 5739 5742 5745 5747 5750
5791 5782 5773 5763 5754 5744 5735 5726 5714 5701 5691 5682 5679 5675 5668 5661 5657 5652 5651 5650 5648 5649 5653 5655 5660 5665 5668 5673 5677 5681 5685 5687 5691 5695 5698 5703 5709 5714 5718 5723 5728 5732 5735 5737 5740 5741 5743
5794 5787 5778 5769 5760 5752 5743 5734 5724 5713 5703 5694 5686 5684 5679 5673 5670 5666 5664 5662 5661 5660 5661 5665 5668 5671 5675 5677 5681 5686 5688 5692 5694 5697 5701 5704 5707 5712 5717 5722 5726 5729 5731 5732 5735 5736 5738
5798 5791 5783 5775 5767 5759 5750 5743 5734 5724 5715 5706 5697 5691 5689 5685 5681 5678 5675 5671 5670 5671 5672 5676 5677 5678 5679 5682 5684 5686 5690 5694 5697 5699 5702 5706 5709 5712 5716 5720 5723 5726 5728 5729 5730 5731 5731
5801 5795 5788 5780 5772 5765 5757 5749 5743 5735 5726 5717 5710 5701 5696 5693 5690 5689 5685 5682 5680 5680 5678 5681 5683 5684 5685 5685 5686 5688 5692 5696 5699 5700 5703 5706 5709 5713 5715 5717 5720 5722 5723 5724 5726 5727 5728
5804 5798 5792 5785 5778 5771 5764 5757 5749 5743 5737 5728 5721 5713 5707 5701 5697 5694 5693 5691 5692 5686 5686 5689 5689 5690 5691 5691 5691 5692 5694 5697 5701 5704 5705 5708 5711 5713 5716 5717 5718 5720 5721 5722 5723 5723 5723
5806 5800 5795 5789 5783 5776 5769 5763 5756 5750 5744 5739 5732 5725 5718 5712 5704 5702 5701 5699 5700 5695 5693 5694 5695 5697 5696 5696 5696 5697 5699 5701 5704 5706 5708 5710 5713 5714 5715 5716 5717 5718 5719 5719 5718 5718 5718
5807 5803 5798 5793 5786 5780 5774 5768 5763 5756 5750 5745 5740 5735 5729 5723 5716 5709 5711 5710 5704 5701 5702 5703 5703 5703 5702 5703 5704 5704 5704 5705 5707 5709 5712 5713 5714 5715 5715 5715 5716 5715 5715 5716 5715 5714 5714
5807 5804 5800 5795 5790 5784 5779 5772 5767 5762 5756 5750 5747 5742 5739 5733 5727 5721 5722 5716 5712 5710 5709 5708 5708 5708 5708 5708 5708 5708 5709 5710 5711 5712 5713 5714 5714 5714 5715 5715 5715 5714 5715 5715 5714 5713 5713
5806 5803 5800 5796 5791 5787 5781 5776 5771 5766 5761 5755 5751 5746 5744 5740 5736 5732 5732 5726 5721 5718 5716 5716 5715 5715 5715 5714 5713 5712 5713 5713 5713 5713 5713 5713 5714 5715 5714 5714 5714 5714 5713 5713 5713 5713 5713
5805 5802 5799 5796 5791 5787 5782 5778 5773 5769 5764 5761 5755 5752 5747 5744 5743 5740 5737 5733 5730 5727 5724 5723 5723 5720 5719 5719 5719 5719 5719 5717 5716 5716 5716 5716 5715 5715 5715 5715 5715 5714 5714 5714 5713 5714 5712
5803 5801 5798 5796 5791 5787 5783 5779 5775 5771 5767 5763 5759 5755 5752 5748 5746 5743 5741 5739 5736 5733 5731 5729 5726 5726 5725 5723 5724 5723 5722 5721 5721 5721 5720 5720 5719 5719 5718 5719 5717 5715 5715 5714 5714 5713 5712
5801 5798 5797 5794 5790 5786 5783 5780 5776 5772 5769 5766 5762 5757 5755 5752 5748 5745 5743 5742 5740 5738 5735 5733 5732 5730 5728 5727 5727 5726 5726 5726 5724 5724 5723 5723 5722 5722 5721 5719 5719 5718 5717 5716 5714 5712 5711
5797 5795 5793 5791 5789 5786 5783 5780 5776 5772 5770 5767 5763 5760 5757 5753 5751 5749 5745 5743 5742 5740 5738 5737 5735 5733 5732 5730 5728 5727 5727 5726 5726 5726 5725 5724 5723 5721 5720 5718 5717 5716 5714 5712 5710 5707 5704
5791 5790 5788 5786 5784 5783 5780 5778 5776 5772 5769 5768 5764 5761 5757 5753 5750 5749 5747 5745 5743 5741 5740 5738 5737 5735 5734 5732 5731 5729 5727 5726 5725 5724 5722 5721 5721 5719 5716 5715 5713 5712 5709 5707 5705 5702 5700
5783 5783 5782 5782 5780 5778 5776 5774 5772 5770 5768 5766 5764 5762 5758 5756 5751 5747 5746 5744 5741 5740 5739 5737 5736 5735 5733 5732 5730 5729 5728 5726 5724 5723 5721 5720 5718 5716 5714 5711 5709 5708 5705 5703 5701 5698 5696
5774 5775 5775 5774 5774 5773 5771 5770 5768 5767 5765 5763 5760 5760 5759 5756 5752 5748 5745 5741 5739 5737 5737 5736 5735 5733 5733 5731 5729 5727 5725 5724 5722 5720 5718 5717 5715 5713 5712 5709 5707 5703 5700 5698 5696 5693 5691
5764 5765 5765 5766 5766 5766 5766 5765 5763 5761 5760 5759 5756 5755 5754 5753 5751 5749 5745 5742 5739 5736 5733 5732 5732 5732 5731 5730 5728 5726 5724 5721 5718 5716 5713 5711 5709 5706 5705 5703 5702 5697 5696 5694 5692 5689 5686
5754 5755 5756 5756 5756 5756 5757 5756 5755 5754 5752 5752 5750 5749 5748 5748 5747 5744 5742 5740 5737 5735 5732 5730 5727 5725 5725 5725 5724 5723 5720 5718 5716 5713 5709 5707 5704 5702 5699 5698 5696 5694 5692 5690 5687 5686 5681
5743 5744 5745 5746 5747 5747 5746 5746 5746 5746 5745 5745 5744 5742 5741 5740 5740 5740 5738 5736 5734 5731 5729 5726 5724 5722 5720 5718 5717 5717 5715 5713 5711 5709 5706 5703 5700 5696 5693 5692 5693 5687 5684 5682 5680 5680 5674
5730 5732 5733 5734 5734 5735 5736 5736 5736 5736 5736 5736 5736 5734 5734 5733 5732 5732 5731 5729 5728 5726 5724 5723 5721 5716 5715 5714 5712 5709 5709 5706 5705 5704 5699 5697 5693 5691 5688 5685 5684 5681 5679 5676 5674 5669 5665
5718 5719 5718 5718 5719 5719 5720 5721 5722 5724 5724 5725 5724 5726 5724 5723 5724 5723 5723 5721 5719 5718 5717 5715 5714 5711 5709 5708 5707 5705 5703 5701 5698 5697 5693 5691 5688 5682 5679 5681 5675 5671 5670 5668 5666 5663 5659
Wind_Speed
55 60 66 69 71 72 64 52 37 40 36 42 40 39 34 25 14 10 10 8 13 24 44 28 30 28 45 36 33 36 34 49 58 54 52 49 47 46 45 43 41 39 37 36 34 33 32
56 60 65 67 69 70 65 54 45 34 39 42 46 36 33 23 18 9 6 3 9 30 30 29 24 33 40 42 44 38 36 41 52 52 51 49 48 47 44 43 41 38 36 35 35 34 32
56 59 63 65 67 68 66 57 47 38 39 42 47 45 39 29 18 15 8 8 6 27 41 29 21 26 28 32 33 33 31 37 49 50 49 48 46 45 44 42 40 39 37 36 35 34 34
55 58 61 65 63 67 67 59 52 45 41 38 43 43 40 33 29 21 16 10 4 7 18 33 25 31 26 28 27 21 27 34 43 51 48 47 45 44 42 41 40 39 38 37 36 36 36
56 58 58 63 60 65 66 65 55 51 42 38 40 42 43 37 42 38 27 25 16 16 13 37 26 22 28 27 26 17 18 27 38 48 46 46 46 46 43 41 41 41 39 38 37 37 37
63 56 58 60 61 62 64 66 62 54 46 39 40 40 42 40 45 43 39 33 24 23 19 38 28 25 24 22 14 16 14 20 28 41 45 45 43 42 43 42 40 39 38 38 38 38 38
59 62 56 57 61 59 63 64 65 61 50 38 41 41 43 43 39 41 33 35 29 31 24 31 31 12 14 16 23 20 20 13 17 27 35 38 37 40 42 44 43 40 39 38 38 39 39
54 58 56 57 56 58 59 61 63 64 58 43 41 42 40 41 38 38 33 26 25 27 22 23 20 17 12 15 15 19 12 18 19 19 25 32 33 32 34 37 39 41 40 38 39 40 41
50 54 57 52 54 55 54 57 59 61 58 54 44 45 43 39 40 38 33 28 25 21 20 22 22 17 11 8 13 17 13 18 18 19 19 22 26 25 24 24 25 26 26 26 26 27 26
47 49 52 52 52 51 51 52 55 56 57 53 46 42 42 42 37 36 32 31 24 21 18 14 12 12 10 7 6 12 19 17 19 18 17 17 19 20 19 17 18 19 19 19 19 21 21
44 47 47 50 46 50 50 47 50 53 53 53 47 42 40 40 41 35 32 31 27 22 25 23 19 12 4 8 8 8 10 11 13 9 13 15 15 15 16 17 17 18 16 17 19 21 22
39 42 45 46 46 45 46 46 45 47 51 49 50 47 43 37 35 34 34 32 32 30 30 26 23 21 14 11 11 11 13 15 10 11 14 15 15 15 15 15 15 15 15 16 17 18 19
35 39 43 43 44 41 43 43 42 41 44 49 47 47 46 43 43 39 31 32 33 36 35 28 25 24 25 22 20 19 19 16 15 14 15 15 15 14 14 13 13 13 14 16 17 18 20
36 35 38 42 39 40 38 40 39 39 38 41 44 47 46 45 45 44 39 31 28 34 34 33 29 26 23 22 21 21 19 19 16 15 14 13 12 11 10 8 10 12 14 16 19 21 22
34 33 35 38 37 35 36 35 37 35 36 35 37 41 42 45 45 44 37 39 39 31 29 27 25 22 19 19 18 17 16 15 12 11 8 7 7 6 5 5 6 8 7 8 7 6 9
31 32 32 36 36 33 34 35 32 33 32 32 32 33 33 37 41 43 36 40 40 37 34 30 23 20 18 16 13 13 12 11 9 8 7 6 7 5 4 2 2 4 3 4 3 3 4
29 30 29 33 33 31 28 31 32 30 30 28 28 29 27 29 31 34 32 37 39 38 36 32 28 25 22 19 18 16 15 13 11 9 8 7 6 5 4 3 3 2 2 3 4 4 4
27 28 27 28 27 26 27 25 27 28 27 25 26 24 26 26 26 25 26 28 31 31 32 31 28 26 25 23 20 18 17 16 14 12 11 9 8 8 8 8 7 6 4 3 3 4 7
26 27 26 23 22 23 24 24 23 25 24 24 21 24 21 22 24 25 26 23 22 23 23 23 23 23 23 22 21 19 18 16 14 12 12 11 9 8 6 3 1 1 3 4 5 6 7
27 27 25 21 18 19 21 23 21 20 23 23 22 18 21 20 19 19 20 22 23 22 21 20 20 19 17 17 16 14 13 12 11 9 7 6 6 5 4 3 4 5 7 8 10 13 14
28 26 26 21 18 18 18 21 22 20 18 19 20 19 16 16 19 18 17 16 17 17 18 19 18 18 17 15 12 12 11 8 7 6 7 7 8 9 11 10 10 10 13 14 14 19 19
30 30 27 22 18 16 15 15 18 22 22 18 17 16 16 14 12 14 15 17 14 12 12 13 13 14 14 15 15 13 12 11 11 10 10 12 12 12 17 15 13 13 17 19 17 18 18
32 31 29 25 20 18 16 14 14 15 17 18 20 18 14 15 13 11 11 11 11 13 12 10 9 9 10 10 10 10 12 11 9 10 12 11 12 12 11 15 16 16 16 19 20 23 22
36 33 32 28 23 21 20 19 19 17 17 16 15 20 19 15 14 13 12 10 11 10 10 10 10 9 8 9 10 10 11 13 13 12 12 14 14 15 13 18 17 22 23 22 20 21 19
38 35 34 32 28 25 24 24 25 24 22 17 19 17 17 18 17 16 15 14 14 13 12 13 11 13 11 10 9 10 9 9 10 12 14 14 13 13 13 12 13 21 20 18 16 20 19
40 37 35 35 32 32 32 30 29 29 26 24 18 18 19 18 18 18 17 15 14 16 17 16 14 13 15 16 16 14 14 15 14 14 14 16 17 18 17 13 13 16 14 17 18 18 21
44 41 39 39 39 38 35 35 34 31 31 27 24 20 19 21 20 20 19 21 20 16 18 21 21 17 17 17 18 17 18 19 16 16 20 21 20 23 23 20 13 18 19 17 19 20 19
49 50 48 48 49 50 48 44 39 34 33 31 28 24 24 25 24 24 23 22 24 23 22 23 23 22 22 24 22 21 20 21 22 22 25 24 27 26 27 27 27 26 24 24 24 25 26
62 61 62 57 55 50 49 46 47 41 37 33 30 30 25 26 30 29 30 30 28 28 28 27 25 23 24 25 25 26 27 27 27 21 25 24 28 34 35 31 36 34 31 32 33 30 32
Wind_Direction
11 11 12 12 15 16 16 21 16 21 22 21 24 16 14 14 36 52 64 63 140 154 142 134 147 178 171 187 200 180 192 197 198 200 204 206 207 207 210 213 213 217 219 222 225 227 233
13 14 14 14 15 18 17 21 23 22 24 18 18 20 12 16 31 34 75 113 138 174 161 136 112 150 167 180 184 185 191 192 194 200 202 205 207 209 210 214 216 216 219 222 227 230 232
16 16 16 16 16 20 19 20 22 21 25 28 27 28 34 36 37 31 79 150 164 173 179 155 141 126 140 161 169 180 183 191 194 197 199 202 205 210 209 211 216 219 220 223 228 232 236
17 16 18 17 18 21 22 21 23 25 26 33 36 34 30 34 49 58 78 75 104 154 174 183 143 114 137 135 155 163 183 191 193 193 196 199 203 208 211 213 216 221 225 228 231 235 239
18 18 19 19 19 22 24 23 24 25 29 37 42 41 37 50 51 55 68 76 81 97 145 168 135 125 126 124 133 136 161 191 195 192 192 198 203 207 210 214 217 220 225 229 233 237 242
20 18 19 21 21 23 26 26 25 28 34 42 44 44 50 59 51 62 62 66 91 90 112 160 132 112 127 121 116 125 142 165 193 195 194 195 202 208 212 214 221 225 227 231 236 240 244
19 18 19 22 24 24 26 29 27 30 37 51 45 47 53 61 61 59 63 61 81 89 114 162 168 137 96 118 114 125 120 132 159 192 200 202 205 211 215 218 218 224 229 234 239 243 246
23 19 18 21 26 27 28 31 33 31 40 51 45 47 55 58 59 62 62 67 73 81 112 130 138 115 135 138 133 136 151 155 166 174 189 198 201 205 211 215 223 230 232 238 243 248 253
24 22 18 20 24 29 32 33 37 36 40 51 51 47 52 54 57 61 69 76 74 81 97 109 124 111 118 99 136 140 130 151 161 165 178 188 195 200 207 216 224 230 234 239 242 245 246
24 24 21 20 25 27 34 36 38 41 43 48 56 48 45 49 52 58 67 74 89 99 99 110 118 138 139 132 141 162 154 160 157 153 162 171 175 183 191 201 211 218 225 234 243 251 256
21 23 22 21 23 28 29 38 39 43 46 48 52 56 51 52 48 53 61 72 81 107 117 114 110 112 169 206 196 179 162 174 191 196 175 177 182 187 194 203 213 224 231 236 243 248 252
15 20 22 23 22 28 29 34 39 41 47 49 51 53 56 55 54 51 55 67 75 90 103 114 111 96 120 124 140 150 156 180 178 148 144 152 160 165 169 183 198 203 215 227 235 243 249
9 13 19 21 22 24 30 30 36 40 43 50 51 53 53 57 56 54 58 68 72 77 86 96 109 105 98 103 118 126 130 143 140 143 144 148 150 157 166 176 190 202 217 230 237 245 252
2 8 12 17 22 21 25 29 31 36 40 45 49 52 53 53 60 58 59 66 73 77 80 87 92 94 93 91 94 99 109 120 131 137 141 147 158 169 181 195 216 233 244 252 258 258 262
1 2 5 12 15 22 22 25 30 32 35 39 44 49 52 56 58 62 60 63 66 76 82 84 83 82 81 82 81 84 94 103 110 126 131 153 167 175 208 223 241 250 261 264 264 254 240
356 0 0 1 8 18 21 21 26 31 33 37 38 44 48 53 57 61 62 66 68 68 70 74 75 76 79 79 69 77 85 91 92 101 114 133 132 153 176 212 179 177 180 224 233 227 234
349 354 360 356 359 8 17 21 22 26 31 32 38 40 43 45 50 55 54 58 67 70 72 73 74 73 74 73 73 76 79 83 91 96 100 98 103 108 114 142 168 180 174 146 151 165 211
340 347 353 354 356 2 8 15 21 25 25 30 33 36 38 41 43 44 47 48 50 60 69 71 72 76 79 79 77 75 76 80 82 84 89 92 102 105 106 110 114 123 137 161 213 248 262
332 338 343 345 348 359 6 10 16 21 22 23 26 32 31 36 42 43 39 42 45 46 47 51 58 61 65 72 73 71 73 74 74 79 84 87 88 87 93 86 108 233 251 262 275 282 279
322 327 333 332 337 353 1 6 12 18 20 18 18 27 32 31 30 34 39 40 40 42 44 45 45 43 44 43 47 54 57 59 59 62 61 51 36 22 4 3 354 346 338 329 327 319 316
311 317 320 320 323 341 351 357 0 4 16 19 15 18 18 27 29 27 27 28 31 35 36 37 38 38 40 40 40 35 29 28 12 3 355 347 338 338 331 328 326 317 306 307 306 299 316
306 309 310 310 303 317 332 348 353 357 358 6 13 12 13 12 11 13 21 24 19 15 17 20 20 21 24 24 23 31 28 18 18 6 352 341 337 327 316 330 327 320 314 325 330 324 331
296 299 302 304 290 296 309 322 337 343 351 351 347 351 357 355 4 4 350 355 15 14 9 356 353 355 355 356 355 351 348 349 350 346 336 335 326 326 311 321 320 319 315 316 318 317 322
291 293 294 296 290 288 294 301 310 318 324 329 337 333 337 339 340 347 350 339 328 338 347 1 356 351 334 323 319 318 317 317 319 317 311 315 313 308 302 299 302 300 306 310 317 319 330
284 288 288 291 290 289 289 292 299 298 296 306 313 316 317 323 327 329 328 338 334 324 315 318 328 328 332 335 337 332 328 325 318 326 328 332 333 327 320 310 303 298 311 317 320 310 318
282 282 283 283 283 287 291 294 304 310 308 286 290 303 310 309 312 315 314 316 319 322 321 314 303 299 304 311 312 313 312 316 315 310 311 314 314 312 310 315 319 304 303 301 307 307 308
275 276 277 278 281 282 283 289 292 298 301 305 291 280 290 296 300 302 304 304 307 312 310 317 313 298 290 287 289 291 294 295 294 294 299 302 304 304 300 300 299 299 300 302 302 303 305
278 279 278 278 280 281 280 281 283 286 289 289 294 288 283 287 288 289 295 292 295 300 299 300 305 298 311 308 298 293 289 289 292 296 292 293 293 289 286 292 291 289 289 288 293 293 296
275 276 277 278 284 280 278 278 279 278 279 273 275 288 290 286 282 287 288 293 293 293 293 296 292 273 290 296 296 300 302 294 289 288 282 291 293 292 294 295 294 298 297 300 296 292 297